Regional Weather Roundup
Issued by NWS

Home | Current Version | Previous Version | Text Only | Print | Product List | Glossary Off
Versions: 1 2 3 4 5 6 7 8 9 10 11 12 13 14 15 16 17 18 19 20 21 22 23 24 25 26 27 28 29 30 31 32 33 34 35 36 37 38 39 40 41 42 43 44 45 46 47 48 49 50

308
ASUS45 KSLC 140710
RWRUT

UTAH REGIONAL WEATHER ROUNDUP
NATIONAL WEATHER SERVICE SALT LAKE CITY UT
1200 AM MST SUN FEB 14 2016

UTZ001>011-023>025-140800-

NORTHERN UTAH

CITY           SKY/WX    TMP DP  RH WIND       PRES   REMARKS
BRIGHAM CITY   CLOUDY    27  25  93 CALM      30.33F VSB 1/4
HILL AFB       FOG       26  25  94 CALM      30.30F VSB 1/4
LOGAN          FOG       23  22  96 SW5       30.30F VSB 1/4 WCI  17
OGDEN          FOG       27  27 100 SE3       30.29F VSB 1/2
PROVO AIRPORT    N/A    N/A N/A N/A CALM      30.30F VSB 1/2
SALT LAKE CITY FOG       29  29 100 CALM      30.32S VSB 1/8
VERNAL         CLOUDY    22  17  81 W3        30.22F HAZE
WENDOVER       CLOUDY    27  25  93 CALM      30.31F VSB 3/4
WEST JORDAN    MOCLDY    27  27 100 CALM      30.31S

$$

UTZ012>022-026-027-140800-

SOUTHERN/CENTRAL UTAH

CITY           SKY/WX    TMP DP  RH WIND       PRES   REMARKS
BLANDING       PTCLDY    36  21  54 N6        30.25S WCI  32
BRYCE CANYON   PTCLDY    17   9  70 N5        30.30F WCI  10
CEDAR CITY     PTCLDY    26  21  81 E3        30.27F
DELTA          CLOUDY     9   7  92 S7        30.31F VSB<1/4 WCI  -2
HANKSVILLE     CLEAR     32  32 100 CALM      30.24
MILFORD        FOG       10   8  92 CALM      30.31R VSB 1/2
MOAB/CYNLANDS  CLEAR     31  29  92 CALM      30.21R
PRICE          PTCLDY    30  19  63 N7        30.21F WCI  23
ST GEORGE      MOSUNNY   48  23  37 CALM      30.19S
KANAB          CLEAR     45  21  39 N7        30.24S

$$

REGIONAL REPORTS     COLORADO/ARIZONA

CITY           SKY/WX    TMP DP  RH WIND       PRES   REMARKS
CRAIG, CO      CLOUDY    10   7  87 SE5       30.25S WCI   2
GRAND JUNCTION CLEAR     31  27  85 E5        30.22S WCI  26
RIFLE          CLOUDY    24  18  77 CALM      30.24R
MONTROSE       CLOUDY    28  24  85 SE7       30.24F WCI  21
CORTEZ         CLOUDY    30  24  78 E7        30.20R WCI  23
PAGE, AZ       CLEAR     43  32  65 SW3       30.19R
GRAND CANYON   PTCLDY    27  21  78 NE3       30.24S
KINGMAN        CLEAR     43  21  41 E8        30.15R
FLAGSTAFF      PTCLDY    27  17  66 CALM      30.23F

$$

REGIONAL REPORTS    NEVADA/IDAHO/WYOMING

CITY           SKY/WX    TMP DP  RH WIND       PRES   REMARKS
LAS VEGAS, NV  CLEAR     58  24  27 SW3       30.10R
ELY            CLOUDY    22  15  75 S17       30.32F WCI   8
ELKO           CLOUDY    29  25  85 CALM      30.29F
POCATELLO, ID  CLOUDY    35  27  72 S10       30.21F WCI  27
BURLEY         CLOUDY    37  29  72 W5        30.21F WCI  33
EVANSTON, WY   CLOUDY    26  18  71 SW16      30.23S WCI  14
ROCK SPRINGS   CLOUDY    29  21  72 S9        30.19S WCI  20

$$




USA.gov is the U.S. government's official web portal to all federal, state and local government web resources and services.